When you browse on this site, cookies collect data to enhance your experience and personalize the content and advertising you see.
Visit our Privacy Policy to learn more. By continuing to use the site, you agree to this use of cookies and data.
  • In Hungary
  • List of Countries
  • For 7 days
  • Water Temperature
  • Weather Map
  • News
  • Weather Widgets
  • user-avatar
    Login

    Hourly Weather Svetlica

    Today, 22 January, Wednesday

    Time Temperature Precipitation Wind Pressure Humidity
    00:00 -3°C° 0 mm 6 mps 733 mmHg 78%
    01:00 -3°C° 0 mm 6 mps 733 mmHg 81%
    02:00 -3°C° 0 mm 6 mps 733 mmHg 83%
    03:00 -3°C° 0.2 mm 6 mps 732 mmHg 85%
    04:00 -3°C° 0.2 mm 6 mps 731 mmHg 88%
    05:00 -3°C° 0.2 mm 6 mps 730 mmHg 90%
    06:00 -3°C° 0.3 mm 6 mps 730 mmHg 88%
    07:00 -3°C° 0.3 mm 6 mps 729 mmHg 86%
    08:00 -2°C° 0.3 mm 5 mps 729 mmHg 84%
    09:00 -2°C° 0.4 mm 5 mps 729 mmHg 81%
    10:00 -2°C° 0.4 mm 5 mps 728 mmHg 78%
    11:00 -2°C° 0.4 mm 5 mps 728 mmHg 75%
    12:00 -2°C° 0.1 mm 5 mps 729 mmHg 73%
    13:00 -4°C° 0.1 mm 5 mps 729 mmHg 72%
    14:00 -4°C° 0.1 mm 5 mps 729 mmHg 71%
    15:00 -4°C° 0 mm 5 mps 730 mmHg 73%
    16:00 -5°C° 0 mm 5 mps 730 mmHg 75%
    17:00 -5°C° 0 mm 5 mps 730 mmHg 77%
    18:00 -5°C° 0 mm 6 mps 731 mmHg 79%
    19:00 -5°C° 0 mm 6 mps 731 mmHg 81%
    20:00 -5°C° 0 mm 6 mps 732 mmHg 83%
    21:00 -6°C° 0.1 mm 6 mps 732 mmHg 83%
    22:00 -6°C° 0.1 mm 6 mps 733 mmHg 82%
    23:00 -8°C° 0.1 mm 6 mps 733 mmHg 81%

    Tomorrow, 23 January, Thursday

    Time Temperature Precipitation Wind Pressure Humidity
    00:00 -8°C° 0.1 mm 6 mps 734 mmHg 79%
    01:00 -8°C° 0.1 mm 6 mps 735 mmHg 76%
    02:00 -8°C° 0.1 mm 6 mps 736 mmHg 74%
    03:00 -9°C° 0 mm 6 mps 736 mmHg 70%
    04:00 -9°C° 0 mm 6 mps 737 mmHg 67%
    05:00 -9°C° 0 mm 6 mps 737 mmHg 63%
    06:00 -9°C° 0 mm 6 mps 738 mmHg 63%
    07:00 -9°C° 0 mm 6 mps 738 mmHg 62%
    08:00 -9°C° 0 mm 6 mps 739 mmHg 62%
    09:00 -9°C° 0 mm 6 mps 739 mmHg 59%
    10:00 -8°C° 0 mm 6 mps 739 mmHg 56%
    11:00 -8°C° 0 mm 6 mps 739 mmHg 53%
    12:00 -6°C° 0 mm 6 mps 740 mmHg 55%
    13:00 -6°C° 0 mm 6 mps 740 mmHg 57%
    14:00 -6°C° 0 mm 6 mps 740 mmHg 59%
    15:00 -6°C° 0 mm 5 mps 740 mmHg 61%
    16:00 -6°C° 0 mm 5 mps 741 mmHg 64%
    17:00 -7°C° 0 mm 4 mps 741 mmHg 67%
    18:00 -6°C° 0 mm 3 mps 741 mmHg 71%
    19:00 -6°C° 0 mm 3 mps 741 mmHg 74%
    20:00 -5°C° 0 mm 2 mps 741 mmHg 77%
    21:00 -5°C° 0 mm 2 mps 741 mmHg 78%
    22:00 -6°C° 0 mm 3 mps 741 mmHg 79%
    23:00 -5°C° 0 mm 3 mps 741 mmHg 79%

    Day after tomorrow, 24 January, Friday

    Time Temperature Precipitation Wind Pressure Humidity
    00:00 -5°C° 0 mm 3 mps 740 mmHg 83%
    01:00 -5°C° 0 mm 3 mps 739 mmHg 87%
    02:00 -4°C° 0 mm 3 mps 739 mmHg 91%
    03:00 -4°C° 0 mm 4 mps 738 mmHg 89%
    04:00 -4°C° 0 mm 4 mps 737 mmHg 88%
    05:00 -4°C° 0 mm 5 mps 736 mmHg 87%
    06:00 -4°C° 0.4 mm 5 mps 735 mmHg 90%
    07:00 -2°C° 0.4 mm 5 mps 735 mmHg 93%
    08:00 -2°C° 0.4 mm 4 mps 735 mmHg 96%
    09:00 -1°C° 0 mm 4 mps 734 mmHg 94%
    10:00 0°C° 0 mm 4 mps 734 mmHg 93%
    11:00 +1°C° 0 mm 4 mps 734 mmHg 91%
    12:00 +1°C° 0 mm 4 mps 734 mmHg 93%
    13:00 +1°C° 0 mm 4 mps 734 mmHg 94%
    14:00 +1°C° 0 mm 4 mps 734 mmHg 95%
    15:00 +1°C° 0.2 mm 4 mps 733 mmHg 95%
    16:00 +1°C° 0.2 mm 4 mps 733 mmHg 94%
    17:00 +1°C° 0.2 mm 4 mps 733 mmHg 94%
    18:00 +1°C° 0.5 mm 4 mps 733 mmHg 94%
    19:00 +1°C° 0.5 mm 4 mps 733 mmHg 95%
    20:00 +1°C° 0.5 mm 4 mps 733 mmHg 96%
    21:00 +2°C° 0.3 mm 3 mps 733 mmHg 96%
    22:00 +2°C° 0.3 mm 3 mps 733 mmHg 97%
    23:00 +2°C° 0.3 mm 3 mps 733 mmHg 97%

    25 January, Saturday

    Time Temperature Precipitation Wind Pressure Humidity
    00:00 +2°C° 0.2 mm 3 mps 732 mmHg 96%
    01:00 +1°C° 0.2 mm 4 mps 732 mmHg 95%
    02:00 +1°C° 0.2 mm 4 mps 732 mmHg 94%
    03:00 +1°C° 0 mm 4 mps 732 mmHg 93%
    04:00 0°C° 0 mm 4 mps 732 mmHg 92%
    05:00 0°C° 0 mm 4 mps 732 mmHg 91%
    06:00 0°C° 0 mm 4 mps 732 mmHg 91%
    07:00 0°C° 0 mm 4 mps 732 mmHg 92%
    08:00 -1°C° 0 mm 4 mps 732 mmHg 92%
    09:00 0°C° 0 mm 4 mps 732 mmHg 90%
    10:00 0°C° 0 mm 4 mps 733 mmHg 88%
    11:00 0°C° 0 mm 4 mps 733 mmHg 86%
    12:00 0°C° 0 mm 4 mps 733 mmHg 83%
    13:00 0°C° 0 mm 4 mps 733 mmHg 80%
    14:00 0°C° 0 mm 4 mps 733 mmHg 78%
    15:00 -1°C° 0 mm 4 mps 733 mmHg 77%
    16:00 -1°C° 0 mm 4 mps 733 mmHg 77%
    17:00 -2°C° 0 mm 4 mps 733 mmHg 77%
    18:00 -2°C° 0 mm 5 mps 733 mmHg 77%
    19:00 -3°C° 0 mm 6 mps 733 mmHg 76%
    20:00 -3°C° 0 mm 6 mps 733 mmHg 76%
    21:00 -3°C° 0.1 mm 6 mps 733 mmHg 76%
    22:00 -3°C° 0.1 mm 6 mps 734 mmHg 76%
    23:00 -3°C° 0.1 mm 6 mps 734 mmHg 75%

    26 January, Sunday

    Time Temperature Precipitation Wind Pressure Humidity
    00:00 -4°C° 0 mm 5 mps 735 mmHg 76%
    01:00 -4°C° 0 mm 5 mps 735 mmHg 77%
    02:00 -5°C° 0 mm 5 mps 736 mmHg 78%
    03:00 -5°C° 0 mm 5 mps 737 mmHg 79%
    04:00 -4°C° 0 mm 4 mps 737 mmHg 79%
    05:00 -4°C° 0 mm 4 mps 737 mmHg 80%
    06:00 -4°C° 0 mm 4 mps 738 mmHg 80%
    07:00 -5°C° 0 mm 4 mps 739 mmHg 80%
    08:00 -5°C° 0 mm 4 mps 739 mmHg 80%
    09:00 -4°C° 0 mm 4 mps 740 mmHg 77%
    10:00 -4°C° 0 mm 3 mps 741 mmHg 75%
    11:00 -2°C° 0 mm 3 mps 741 mmHg 72%
    12:00 -2°C° 0 mm 3 mps 742 mmHg 72%
    13:00 -2°C° 0 mm 3 mps 742 mmHg 72%
    14:00 -1°C° 0 mm 2 mps 742 mmHg 71%
    15:00 -2°C° 0 mm 2 mps 742 mmHg 74%
    16:00 -2°C° 0 mm 2 mps 742 mmHg 77%
    17:00 -3°C° 0 mm 2 mps 743 mmHg 80%
    18:00 -2°C° 0 mm 2 mps 743 mmHg 81%
    19:00 -2°C° 0 mm 2 mps 743 mmHg 82%
    20:00 -2°C° 0 mm 3 mps 743 mmHg 84%
    21:00 -2°C° 0 mm 3 mps 743 mmHg 87%
    22:00 -2°C° 0 mm 3 mps 743 mmHg 90%
    23:00 -2°C° 0 mm 3 mps 743 mmHg 94%

    27 January, Monday

    Time Temperature Precipitation Wind Pressure Humidity
    00:00 -2°C° 0 mm 3 mps 743 mmHg 94%
    01:00 -2°C° 0 mm 3 mps 742 mmHg 94%
    02:00 -1°C° 0 mm 3 mps 742 mmHg 94%
    03:00 -1°C° 0 mm 3 mps 742 mmHg 94%
    04:00 -1°C° 0 mm 3 mps 742 mmHg 94%
    05:00 -1°C° 0 mm 3 mps 742 mmHg 94%
    06:00 -1°C° 0.1 mm 3 mps 742 mmHg 94%
    07:00 -1°C° 0.1 mm 3 mps 741 mmHg 95%
    08:00 -1°C° 0.1 mm 3 mps 741 mmHg 96%
    09:00 -1°C° 0.3 mm 3 mps 741 mmHg 96%
    10:00 -1°C° 0.3 mm 3 mps 741 mmHg 96%
    11:00 -1°C° 0.3 mm 3 mps 741 mmHg 96%
    12:00 0°C° 0.2 mm 3 mps 740 mmHg 96%
    13:00 0°C° 0.2 mm 3 mps 740 mmHg 96%
    14:00 0°C° 0.2 mm 3 mps 739 mmHg 96%
    15:00 -1°C° 0.1 mm 4 mps 739 mmHg 95%
    16:00 -1°C° 0.1 mm 4 mps 739 mmHg 93%
    17:00 -1°C° 0.1 mm 4 mps 738 mmHg 91%
    18:00 -1°C° 0 mm 4 mps 738 mmHg 91%
    19:00 -1°C° 0 mm 5 mps 738 mmHg 91%
    20:00 -2°C° 0 mm 5 mps 737 mmHg 92%
    21:00 -2°C° 0.2 mm 5 mps 737 mmHg 93%
    22:00 -1°C° 0.2 mm 5 mps 737 mmHg 94%
    23:00 -1°C° 0.2 mm 4 mps 737 mmHg 96%
    Show more